Total_Precipitation_Accumulation
0.74 0.73 0.77 0.78 0.81 0.86 0.92 0.94 0.99 1.04 1.10 1.10 1.07 1.02 0.92 0.85 0.82 0.82 0.85 0.94 0.94 0.90 0.93 0.91 0.90 0.92 0.97 0.97 0.99 1.03 1.21 1.37 1.28 1.23 1.12 0.98 0.86 0.75 0.63 0.57 0.48 0.39 0.35
0.71 0.71 0.74 0.77 0.76 0.75 0.77 0.76 0.78 0.81 0.84 0.85 0.86 0.90 0.93 0.90 0.84 0.81 0.79 0.79 0.82 0.83 0.87 0.91 0.92 0.97 0.97 0.89 0.91 0.99 1.17 1.36 1.41 1.51 1.57 1.32 1.05 0.86 0.78 0.66 0.46 0.34 0.35
0.66 0.70 0.76 0.74 0.72 0.73 0.76 0.76 0.74 0.73 0.73 0.73 0.73 0.74 0.76 0.86 0.94 0.93 0.90 0.91 0.94 0.87 0.89 0.95 0.92 0.90 0.88 0.84 0.89 0.97 1.09 1.23 1.34 1.40 1.52 1.34 1.15 0.92 0.90 0.75 0.58 0.51 0.36
0.57 0.71 0.82 0.87 0.86 0.86 0.80 0.80 0.78 0.74 0.74 0.72 0.68 0.68 0.70 0.71 0.79 0.90 0.94 0.92 0.88 0.83 0.83 0.82 0.77 0.75 0.75 0.74 0.75 0.86 0.96 1.02 1.09 1.14 1.24 1.28 1.29 1.24 1.18 1.01 0.86 0.73 0.60
0.56 0.77 0.87 0.84 0.78 0.75 0.73 0.79 0.76 0.68 0.68 0.69 0.62 0.59 0.65 0.69 0.69 0.69 0.77 0.80 0.76 0.73 0.74 0.68 0.58 0.59 0.61 0.57 0.58 0.70 0.79 0.86 0.95 1.01 1.13 1.26 1.34 1.37 1.28 1.21 1.08 0.98 0.83
0.51 0.62 0.65 0.68 0.69 0.65 0.59 0.57 0.56 0.57 0.57 0.57 0.52 0.50 0.51 0.51 0.55 0.52 0.52 0.58 0.57 0.55 0.58 0.59 0.52 0.47 0.45 0.47 0.46 0.49 0.54 0.61 0.75 0.93 1.07 1.25 1.31 1.24 1.31 1.28 1.23 1.16 1.10
0.42 0.46 0.52 0.62 0.64 0.56 0.47 0.48 0.52 0.50 0.48 0.46 0.43 0.41 0.39 0.38 0.36 0.34 0.35 0.42 0.45 0.43 0.42 0.44 0.42 0.40 0.37 0.32 0.38 0.45 0.45 0.46 0.49 0.68 0.86 0.91 0.92 0.86 1.03 1.22 1.19 1.16 1.24
0.42 0.48 0.51 0.60 0.60 0.54 0.51 0.48 0.47 0.44 0.44 0.43 0.40 0.37 0.37 0.37 0.34 0.31 0.29 0.28 0.34 0.38 0.36 0.34 0.35 0.37 0.35 0.31 0.31 0.36 0.35 0.34 0.35 0.38 0.42 0.43 0.47 0.54 0.69 0.95 1.15 1.13 1.19
0.41 0.50 0.58 0.63 0.60 0.55 0.52 0.48 0.45 0.43 0.39 0.37 0.39 0.40 0.37 0.36 0.31 0.28 0.29 0.31 0.34 0.34 0.34 0.31 0.28 0.29 0.34 0.33 0.30 0.30 0.28 0.28 0.30 0.29 0.27 0.31 0.34 0.35 0.39 0.55 0.77 1.06 1.36
0.49 0.55 0.60 0.61 0.62 0.59 0.56 0.53 0.48 0.48 0.43 0.38 0.39 0.41 0.38 0.37 0.31 0.24 0.23 0.29 0.36 0.37 0.39 0.36 0.28 0.24 0.25 0.22 0.22 0.24 0.23 0.21 0.20 0.25 0.28 0.27 0.28 0.30 0.28 0.33 0.44 0.67 0.99
0.52 0.59 0.66 0.70 0.65 0.61 0.61 0.60 0.58 0.55 0.54 0.48 0.42 0.41 0.40 0.38 0.33 0.24 0.22 0.28 0.36 0.41 0.41 0.38 0.31 0.24 0.18 0.17 0.16 0.16 0.17 0.15 0.15 0.19 0.24 0.25 0.24 0.25 0.23 0.21 0.25 0.34 0.49
0.56 0.64 0.72 0.77 0.63 0.57 0.66 0.67 0.66 0.66 0.66 0.62 0.56 0.48 0.45 0.44 0.36 0.26 0.22 0.26 0.34 0.41 0.46 0.41 0.30 0.23 0.17 0.15 0.14 0.14 0.12 0.11 0.13 0.16 0.20 0.22 0.21 0.20 0.20 0.18 0.19 0.23 0.29
0.64 0.72 0.74 0.75 0.78 0.78 0.73 0.72 0.72 0.72 0.72 0.70 0.69 0.65 0.58 0.56 0.51 0.38 0.29 0.28 0.33 0.40 0.43 0.48 0.40 0.22 0.14 0.13 0.14 0.12 0.09 0.08 0.10 0.12 0.14 0.17 0.16 0.14 0.13 0.16 0.17 0.17 0.19
0.72 0.76 0.79 0.81 0.83 0.85 0.87 0.85 0.82 0.78 0.79 0.80 0.75 0.72 0.70 0.69 0.62 0.51 0.41 0.36 0.37 0.39 0.42 0.43 0.42 0.30 0.16 0.13 0.13 0.11 0.09 0.08 0.09 0.09 0.11 0.13 0.13 0.11 0.11 0.11 0.13 0.16 0.18
0.81 0.83 0.86 0.87 0.89 0.90 0.90 0.89 0.86 0.82 0.76 0.79 0.77 0.71 0.71 0.71 0.66 0.57 0.51 0.45 0.41 0.42 0.41 0.40 0.38 0.32 0.20 0.13 0.11 0.10 0.09 0.09 0.09 0.08 0.08 0.10 0.12 0.12 0.11 0.09 0.10 0.13 0.16
0.90 0.84 0.82 0.80 0.81 0.84 0.83 0.72 0.60 0.58 0.54 0.52 0.55 0.56 0.56 0.53 0.49 0.47 0.49 0.46 0.45 0.46 0.43 0.42 0.42 0.33 0.22 0.15 0.10 0.09 0.09 0.09 0.08 0.08 0.08 0.09 0.09 0.11 0.10 0.08 0.08 0.09 0.11
0.87 0.84 0.77 0.71 0.69 0.71 0.75 0.74 0.66 0.58 0.57 0.52 0.42 0.39 0.43 0.40 0.36 0.36 0.42 0.44 0.43 0.45 0.43 0.40 0.41 0.34 0.23 0.15 0.10 0.07 0.08 0.08 0.08 0.08 0.09 0.10 0.09 0.09 0.09 0.08 0.08 0.08 0.10
0.83 0.75 0.71 0.67 0.66 0.64 0.65 0.67 0.67 0.69 0.69 0.62 0.49 0.42 0.39 0.33 0.29 0.29 0.36 0.42 0.41 0.38 0.40 0.36 0.36 0.31 0.22 0.15 0.10 0.07 0.06 0.06 0.06 0.07 0.08 0.08 0.08 0.09 0.10 0.09 0.07 0.07 0.09
0.88 0.76 0.68 0.61 0.61 0.63 0.64 0.65 0.65 0.68 0.72 0.70 0.59 0.53 0.45 0.32 0.28 0.29 0.31 0.31 0.29 0.29 0.29 0.27 0.26 0.23 0.19 0.15 0.11 0.07 0.06 0.06 0.06 0.06 0.07 0.07 0.08 0.08 0.10 0.11 0.11 0.09 0.08
0.88 0.77 0.70 0.61 0.58 0.63 0.68 0.65 0.63 0.68 0.71 0.70 0.64 0.52 0.39 0.31 0.27 0.26 0.26 0.22 0.19 0.18 0.18 0.17 0.16 0.14 0.13 0.10 0.08 0.06 0.05 0.05 0.06 0.06 0.06 0.06 0.07 0.08 0.10 0.12 0.12 0.12 0.12
0.84 0.77 0.67 0.58 0.54 0.56 0.62 0.64 0.60 0.63 0.66 0.64 0.56 0.45 0.30 0.23 0.20 0.17 0.17 0.15 0.12 0.11 0.11 0.11 0.10 0.09 0.08 0.05 0.04 0.04 0.04 0.04 0.03 0.04 0.04 0.05 0.06 0.06 0.07 0.08 0.09 0.10 0.11
0.84 0.81 0.72 0.63 0.57 0.57 0.58 0.60 0.60 0.59 0.58 0.58 0.49 0.36 0.26 0.22 0.18 0.14 0.12 0.09 0.07 0.07 0.07 0.07 0.06 0.05 0.03 0.02 0.02 0.02 0.02 0.02 0.02 0.03 0.03 0.03 0.04 0.05 0.06 0.06 0.07 0.08 0.08
0.81 0.80 0.75 0.64 0.58 0.57 0.54 0.57 0.60 0.56 0.50 0.49 0.41 0.28 0.21 0.20 0.16 0.12 0.09 0.06 0.04 0.05 0.05 0.06 0.04 0.02 0.01 0.00 0.00 0.00 0.00 0.00 0.00 0.00 0.01 0.01 0.02 0.03 0.04 0.05 0.06 0.07 0.08
0.79 0.77 0.71 0.63 0.57 0.55 0.53 0.55 0.53 0.45 0.38 0.36 0.32 0.22 0.19 0.17 0.12 0.10 0.07 0.04 0.04 0.04 0.04 0.04 0.03 0.01 0.01 0.00 0.00 0.00 0.00 0.00 0.00 0.00 0.00 0.01 0.01 0.02 0.02 0.04 0.04 0.05 0.06
0.75 0.74 0.71 0.64 0.58 0.52 0.49 0.48 0.45 0.38 0.30 0.27 0.25 0.21 0.17 0.13 0.10 0.08 0.04 0.03 0.04 0.03 0.02 0.02 0.02 0.01 0.01 0.01 0.01 0.01 0.00 0.00 0.00 0.00 0.00 0.01 0.01 0.02 0.02 0.03 0.04 0.04 0.05
0.70 0.69 0.66 0.61 0.54 0.47 0.43 0.43 0.39 0.31 0.24 0.21 0.20 0.18 0.14 0.11 0.09 0.06 0.03 0.03 0.03 0.03 0.02 0.02 0.02 0.02 0.01 0.01 0.02 0.01 0.01 0.01 0.01 0.01 0.01 0.01 0.02 0.03 0.03 0.03 0.03 0.03 0.04